Flag for Germany Weather past 2 weeks in Worms, Rhineland-Palatinate, Germany

Now
50 °F

Sunny.


Feels Like: 46 °F
Forecast: 38 / 58 °F
Wind: 10 mph from Northeast

Location: Baden Wurttemberg - Neuostheim

Current Time: Apr 18, 2015 at 10:26:06 AM

Latest Report: Apr 18, 2015 at 9:50 AM


Visibility: 10 mi

Pressure: 30.24 "Hg

Humidity: 54%

Dew point: 34 °F

Location of WormsLocation

Historic Weather in Worms — Graph

°F

Worms temperature yesterday

Maximum temperature yesterday: 61 °F (at 6:20 PM)
Minimum temperature yesterday: 50 °F (at 5:50 AM)
Average temperature yesterday: 54 °F

Past Weeks' High & Low Weather Summary

 TemperatureHumidityPressure
High79 °F (Apr 15, 4:20 PM)93% (Apr 4, 7:50 AM)30.63 "Hg (Apr 4, 7:50 AM)
Low30 °F (Apr 7, 6:50 AM)19% (Apr 15, 8:20 PM)29.86 "Hg (Apr 16, 5:20 PM)
Average55 °F52%30.24 "Hg
* Reported Apr 3 9:20 AM — Apr 18 9:20 AM, Worms, Weather by CustomWeather, © 2015

Note: Actual official high and low records may vary slightly from our data, if they occured in-between our weather recording intervals... More about our weather records

Advertising

Worms weather history for previous 24 hours

 ConditionsComfort  
Time TempWeatherWind HumidityBarometerVisibility
9:20 AM
Sat, Apr 18
48 °FSunny.8 mph58%30.24 "Hg10 mi
8:50 AM46 °FPassing clouds.8 mph62%30.24 "HgN/A
8:20 AM43 °FPassing clouds.5 mph71%30.24 "HgN/A
7:50 AM41 °FSunny.6 mph70%30.24 "Hg10 mi
8:50 PM
Fri, Apr 17
54 °FPassing clouds.12 mph44%30.07 "HgN/A
8:20 PM54 °FPassing clouds.10 mph44%30.04 "HgN/A
7:50 PM55 °FPassing clouds.10 mph41%30.01 "HgN/A
7:20 PM57 °FPassing clouds.14 mph39%29.98 "HgN/A
6:50 PM59 °FPassing clouds.10 mph34%29.98 "HgN/A
6:20 PM61 °FPassing clouds.9 mph36%29.98 "HgN/A
5:50 PM57 °FSunny.3 mph41%29.98 "Hg10 mi
5:20 PM57 °FPassing clouds.5 mph44%29.98 "HgN/A
4:50 PM55 °FSunny.6 mph51%29.98 "Hg10 mi
4:20 PM54 °FPassing clouds.7 mph54%29.98 "HgN/A
3:50 PM54 °FPartly sunny.9 mph54%29.98 "HgN/A
3:20 PM54 °FDrizzle. Partly sunny.13 mph54%29.98 "HgN/A
2:50 PM54 °FPassing clouds.12 mph54%29.98 "HgN/A
2:20 PM54 °FScattered clouds.12 mph54%29.98 "HgN/A
1:50 PM54 °FScattered clouds.9 mph54%29.98 "HgN/A
1:20 PM54 °FPassing clouds.12 mph54%29.98 "HgN/A
12:50 PM54 °FPassing clouds.12 mph54%29.98 "HgN/A
12:20 PM54 °FSunny.15 mph58%29.95 "Hg10 mi
11:50 AM55 °FSunny.14 mph55%29.95 "Hg10 mi
11:20 AM55 °FPassing clouds.9 mph59%29.95 "HgN/A
10:50 AM54 °FPassing clouds.10 mph63%29.95 "HgN/A
10:20 AM54 °FSunny.12 mph63%29.95 "Hg10 mi
Weather by CustomWeather, © 2015

See weather overviewHow to use our weather pages